Torna al catalogo

STARLINK-35182

AttivoComunicazioniVLEO
NORAD 65504·PAYLOAD·🇺🇸 United States

Lanciato Sep 5, 2025 da Cape Canaveral Space Force Station

Loading…

Prossimi Passaggi (prossime 24 ore)

TLE

AggiornatoSource: CelesTrak SupGP

Epoca: Sep 14, 2026, 20:47 UTC

1 65504C 25198N   26257.86645833 -.00029211  00000+0 -86322-3 0  2577
2 65504  53.1563 108.3006 0001229  87.6305 146.1879 15.34398635    10

Traccia STARLINK-35182 in tempo reale con AllMySat

Download on the App Store